Location: Vancouver
(49.2827°N, 123.1207°W)
Time: 09:43:59
(UTC-08:00)

ISS - Visible Passes

Search period start: 10 February 2026 00:00
Search period end: 20 February 2026 00:00
Orbit: 413 x 429 km, 51.6° (Epoch: 10 February)

Date Brightness Start Highest point End Pass type
(mag) Time Alt. Az. Time Alt. Az. Time Alt. Az.
10 Feb -0.4 06:38:02 10° SSE 06:39:07 11° SE 06:40:12 10° ESE visible
12 Feb -1.5 06:38:41 10° SSW 06:41:30 25° SE 06:44:21 10° E visible
13 Feb -1.1 05:52:19 10° S 05:54:38 18° SE 05:56:57 10° E visible
14 Feb -0.8 05:06:31 10° SSE 05:07:47 12° SE 05:09:02 10° ESE visible
14 Feb -3.1 06:40:45 10° SW 06:44:01 54° SSE 06:47:18 10° ENE visible
15 Feb -2.5 05:54:26 14° SW 05:57:01 38° SSE 06:00:09 10° E visible
16 Feb -2.1 05:09:33 25° SSE 05:10:02 26° SE 05:12:53 10° E visible
16 Feb -3.8 06:43:16 10° WSW 06:46:37 82° NNW 06:49:59 10° ENE visible
17 Feb -0.8 04:24:31 14° ESE 04:24:31 14° ESE 04:25:27 10° E visible
17 Feb -3.7 05:57:31 22° WSW 05:59:30 77° SSE 06:02:51 10° ENE visible
18 Feb -3.4 05:12:22 56° SSE 05:12:23 56° SSE 05:15:41 10° ENE visible
19 Feb -1.1 04:27:08 20° E 04:27:08 20° E 04:28:28 10° ENE visible
19 Feb -3.7 06:00:07 23° W 06:02:03 67° NNW 06:05:23 10° ENE visible
